Overview Statistics Trail Chart Weather Telemetry Raw packets
 

This is the latest recevied weather packets stored in our database for station/object KO6LQK. If no packets are shown the sender has not sent any weather packets the latest 10 day(s).

<< 32 33 34 35 36 37 38 >>
Time Temp. Humidity Pressure Rain* Wind** Luminosity Snow
1788205232 30.56° C 18% 1020.9 hPa 0 mm - 928 W/m² -
1788204928 30° C 20% 1020.8 hPa 0 mm - 924 W/m² -
1788204622 30° C 20% 1021 hPa 0 mm - 919 W/m² -
1788204318 30° C 20% 1020.9 hPa 0 mm - 913 W/m² -
1788204013 30° C 20% 1021 hPa 0 mm - 905 W/m² -
1788203709 30.56° C 20% 1020.9 hPa 0 mm - 896 W/m² -
1788203405 30.56° C 20% 1021 hPa 0 mm - 892 W/m² -
1788203113 30° C 21% 1021 hPa 0 mm - 882 W/m² -
1788202798 30° C 21% 1020.8 hPa 0 mm - 878 W/m² -
1788202495 29.44° C 21% 1021.4 hPa 0 mm - 870 W/m² -
1788202194 29.44° C 21% 1021.2 hPa 0 mm - 861 W/m² -
1788201889 30° C 21% 1021.4 hPa 0 mm - 852 W/m² -
1788201584 29.44° C 20% 1021.4 hPa 0 mm - 849 W/m² -
1788201284 29.44° C 21% 1021.2 hPa 0 mm - 835 W/m² -
1788200983 29.44° C 21% 1021.4 hPa 0 mm - 828 W/m² -
1788200679 29.44° C 21% 1021.2 hPa 0 mm - 816 W/m² -
1788200374 29.44° C 23% 1021.6 hPa 0 mm - 805 W/m² -
1788200069 28.89° C 23% 1021.5 hPa 0 mm - 790 W/m² -
1788199764 28.89° C 23% 1021.5 hPa 0 mm - 779 W/m² -
1788199464 28.33° C 24% 1021.7 hPa 0 mm - 760 W/m² -
1788199163 28.33° C 24% 1021.5 hPa 0 mm - 747 W/m² -
1788198860 27.78° C 24% 1021.5 hPa 0 mm - 730 W/m² -
1788198555 28.33° C 26% 1021.6 hPa 0 mm - 714 W/m² -
1788198251 28.33° C 26% 1021.6 hPa 0 mm - 704 W/m² -
1788197950 27.78° C 26% 1021.6 hPa 0 mm - 685 W/m² -

* Rain latest hour (hover to see other rain measurements)
** Current wind speed in m/s (hover to see current wind gust speed)